Alpena, MI

7:15 PM EST on February 27, 2017 (GMT -0500)
Alpena County Regional

Weather History for KAPN - January, 2013

Change the Weather History Date:

Sunday, January 27, 2013

  Actual Average Record
Temperature  
Mean Temperature 14 °F 18 °F  
Max Temperature 27 °F 27 °F 55 °F (1944)
Min Temperature 0 °F 10 °F -26 °F (1927)
Degree Days  
Heating Degree Days 51 46  
Month to date heating degree days 1150 1231  
Since 1 July heating degree days 3926 4292  
Moisture  
Dew Point 15 °F    
Average Humidity 78    
Maximum Humidity 88    
Minimum Humidity 68    
Precipitation  
Precipitation 0.05 in 0.04 in 1.11 in (1967)
Month to date precipitation 1.29 1.47  
Year to date precipitation 1.29 1.47  
Snow  
Snow 0.80 in 0.60 in 11.20 in (1967)
Month to date snowfall 4.3 18.6  
Since 1 July snowfall 18.0 45.9  
Snow Depth 3.00 in    
Sea Level Pressure  
Sea Level Pressure 30.33 in    
Wind  
Wind Speed 7 mph (South)    
Max Wind Speed 14 mph    
Max Gust Speed 17 mph    
Visibility 7 miles    
Events Snow    
T = Trace of Precipitation, MM = Missing Value Source: NWS Daily Summary

Daily Weather History Graph

Daily Weather History Graph

Search for Another Location

Airport or City:

Trip Planner

Search our weather history database for the weather conditions in past years. The results will help you decide how hot, cold, wet, or windy it might be!

Date:

Astronomy

Jan. 27, 2013 Rise Set
Actual Time 7:59 AM EST 5:35 PM EST
Civil Twilight 7:27 AM EST 6:07 PM EST
Nautical Twilight 6:52 AM EST 6:42 PM EST
Astronomical Twilight 6:17 AM EST 7:17 PM EST
Moon 6:33 PM EST (1/27) 7:47 AM EST (1/27)
Length of Visible Light 10h 39m
Length of Day
9h 35m
Full, 100% of the Moon is Illuminated
Jan 27
Full
Feb 3
Last Quarter
Feb 10
New
Feb 17
First Quarter
Feb 25
Full

Hourly Weather History & Observations

Time (EST) Temp. Windchill Dew Point Humidity Pressure Visibility Wind Dir Wind Speed Gust Speed Precip Events Conditions
12:54 AM 3.0 °F - -2.0 °F 80% 30.46 in 10.0 mi Calm Calm - N/A   Partly Cloudy
1:54 AM 5.0 °F - -0.0 °F 80% 30.46 in 10.0 mi Calm Calm - N/A   Mostly Cloudy
2:54 AM 8.1 °F - 5.0 °F 87% 30.46 in 10.0 mi Calm Calm - N/A   Overcast
3:54 AM 10.9 °F - 7.0 °F 84% 30.45 in 10.0 mi Calm Calm - N/A   Overcast
4:54 AM 12.0 °F - 9.0 °F 88% 30.43 in 10.0 mi Calm Calm - N/A   Overcast
5:54 AM 15.1 °F - 10.9 °F 84% 30.44 in 10.0 mi Calm Calm - N/A   Overcast
6:54 AM 19.0 °F 12.3 °F 14.0 °F 81% 30.44 in 10.0 mi South 4.6 mph - N/A   Overcast
7:54 AM 19.9 °F 11.1 °F 14.0 °F 78% 30.44 in 10.0 mi South 6.9 mph - N/A   Overcast
8:54 AM 21.0 °F 10.6 °F 16.0 °F 81% 30.43 in 10.0 mi South 9.2 mph - N/A   Overcast
9:54 AM 23.0 °F 14.7 °F 17.1 °F 78% 30.42 in 10.0 mi South 6.9 mph - N/A   Overcast
10:54 AM 23.0 °F 12.4 °F 16.0 °F 74% 30.42 in 10.0 mi South 10.4 mph - N/A   Overcast
11:54 AM 24.1 °F 15.2 °F 16.0 °F 71% 30.41 in 10.0 mi South 8.1 mph - N/A   Overcast
12:54 PM 25.0 °F 17.1 °F 16.0 °F 69% 30.39 in 10.0 mi SSW 6.9 mph - N/A   Overcast
1:54 PM 26.1 °F 16.2 °F 16.0 °F 66% 30.37 in 5.0 mi SSW 10.4 mph - 0.00 in Snow Light Snow
2:54 PM 26.1 °F 17.6 °F 18.0 °F 71% 30.33 in 7.0 mi SSE 8.1 mph - 0.00 in Snow Light Snow
3:54 PM 27.0 °F 17.3 °F 18.0 °F 69% 30.30 in 10.0 mi South 10.4 mph - 0.00 in   Overcast
4:54 PM 27.0 °F 17.3 °F 17.1 °F 66% 30.28 in 10.0 mi South 10.4 mph - N/A   Overcast
5:54 PM 27.0 °F 16.7 °F 17.1 °F 66% 30.28 in 10.0 mi South 11.5 mph - N/A   Overcast
6:54 PM 27.0 °F 16.7 °F 17.1 °F 66% 30.27 in 10.0 mi South 11.5 mph - N/A   Overcast
7:54 PM 26.1 °F 16.2 °F 19.9 °F 78% 30.27 in 4.0 mi South 10.4 mph - 0.00 in Snow Light Snow
8:02 PM 24.8 °F 14.6 °F 19.4 °F 80% 30.23 in 2.5 mi South 10.4 mph - 0.01 in Snow Light Snow
8:12 PM 24.8 °F 13.4 °F 21.2 °F 86% 30.23 in 1.5 mi South 12.7 mph - 0.01 in Snow Light Snow
8:54 PM 25.0 °F 15.5 °F 21.9 °F 88% 30.26 in 1.8 mi South 9.2 mph - 0.04 in Snow Light Snow
9:54 PM 25.0 °F 14.8 °F 21.9 °F 88% 30.23 in 1.5 mi SSE 10.4 mph - 0.05 in Snow Light Snow
10:06 PM 24.8 °F 16.1 °F 21.2 °F 86% 30.18 in 2.0 mi SSE 8.1 mph - 0.00 in Snow Light Snow
10:26 PM 24.8 °F 15.3 °F 21.2 °F 86% 30.18 in 1.8 mi SE 9.2 mph - 0.01 in Snow Light Snow
10:43 PM 24.8 °F 16.1 °F 21.2 °F 86% 30.16 in 1.8 mi SE 8.1 mph - 0.02 in Snow Light Snow
10:54 PM 25.0 °F 17.1 °F 21.9 °F 88% 30.20 in 1.5 mi SE 6.9 mph - 0.02 in Snow Light Snow
11:02 PM 24.8 °F 16.9 °F 23.0 °F 93% 30.16 in 1.2 mi SE 6.9 mph - 0.01 in Snow Light Snow
11:54 PM 25.0 °F 15.5 °F 23.0 °F 92% 30.16 in 1.2 mi SE 9.2 mph - 0.04 in Snow Light Snow